6P/d'Arrest (2008)

Japanese version
Home page
Total 6,336 html files since Dec. 4, 1995
Updated on August 24, 2008

---------------------------------------------------------------------

* Profile

* Pictures

* Orbital Elements

Epoch 2008 Aug. 2.0 TT = JDT 2454680.5
T 2008 Aug. 14.95983 TT                                 MPC
q   1.3535073            (2000.0)            P               Q
n   0.15079876     Peri.  178.12009     +0.73325600     +0.64356964
a   3.4957272      Node   138.93575     -0.62812237     +0.76470318
e   0.6128109      Incl.   19.51483     -0.26038036     -0.03235986
P   6.54
From 334 observations 1995-2008, mean residual 0".68.  Nongravitational
   parameters A1 = +0.81 +/- 0.03, A2 = +0.0982 +/- 0.0008.

* Finding Charts

* Magnitudes Graph

        m1 = 16.0 + 5 log d +  5.0 log r          [   ,-75]  (             - 2008 May  31)
        m1 =  3.5 + 5 log d + 45.0 log r(t - 60)  [-75,210]  (2008 May  31 - 2009 Mar. 12)
        m1 = 16.0 + 5 log d +  5.0 log r          [210,   ]  (2009 Mar. 12 -             )

---------------------------------------------------------------------

The orbital elements are published on M.P.E.C. 2008-J23.
The charts are made with StellaNavigator Ver.2.0 for Windows (AstroArts / ASCII).
The magnitudes graphs are made with Comet for Windows.

---------------------------------------------------------------------

Copyright(C) 1995-2008 Seiichi Yoshida (comet@aerith.net). All rights reserved.